SCP
0 0 0 0 0 0 0 0 0 0 0 0 0 0 0 0 0 0 0 0 0 0 0 0 0 0 0 0 0 0 0 0 0 0 0 0 0 0 0 0 0 0 0 0 0 0 0 0 0 0 0 0 0 0
0 -0 0 0 0 0 0 0 0 0 0 0 0 0 0 0 0 0 0 0 0 0 0 0 0 0 0 0 0 0 0 0 0 0 0 0 0 0 0 0 0 0 0 0 0 0 0 0 0 0 0 0 0 0
0 0 0 0 0 0 0 0 0 0 0 0 0 0 0 0 0 0 0 0 0 0 0 0 0 0 0 0 0 0 0 0 0 0 0 0 0 0 0 0 0 0 0 0 0 0 0 0 0 0 -0 -0 0 0
0 0 0 0 0 0 0 0 0 0 0 0 0 0 0 0 0 0 0 0 0 0 0 0 0 0 0 0 0 0 0 0 0 0 0 0 0 0 0 0 0 0 0 0 0 0 0 0 0 0 0 0 0 0
0 0 0 0 0 0 0 0 0 0 0 0 0 0 0 0 0 0 0 0 0 0 0 0 0 0 0 0 0 0 0 0 0 0 0 0 0 0 0 0 0 0 0 0 0 0 0 0 0 0 0 0 0 0
0 0 0 0 0 0 0 0 0 0 0 0 0 0 0 0 0 0 0 0 0 0 0 0 0 0 0 0 0 0 0 0 0 0 0 0 0 0 0 0 0 0 0 0 0 0 0 0 0 0 0 0 0 0
0 0 0 0 0 0 0 0 0 0 0 0 0 0 0 0 0 0 0 0 0 0 0 0 0 0 0 0 0 0 0 0 0 0 0 0 0 0 0 0 0 0 0 0 0 0 0 0 0 0 0 0 0 0
-0 0 -0 -0 0 0 0 0 0 0 0 0 0 0 0 0 0 0 0 0 0 0 0 0 0 0 0 0 0 0 0 0 0 0 0 0 0 0 0 0 0 0 0 0 0 0 0 0 0 0 0 0 0 0
-0 0 -0 0 0 0 0 0 0 0 0 0 0 0 0 0 0 0 0 0 0 0 0 0 0 0 0 0 0 0 0 0 0 0 0 0 0 0 0 0 0 0 0 0 0 0 0 0 0 0 0 0 0 0
-0 -0 -0 -0 -0 0 0 0 0 0 0 0 0 0 0 0 0 0 0 0 0 -0 -0 0 0 0 0 0 0 0 0 0 0 0 0 0 0 0 0 0 0 0 0 0 0 0 0 0 0 0 0 0 0 0
0 -0 -0 -0 0 -0 -0 0 0 0 0 0 0 0 0 0 0 0 0 0 0 0 -0 0 0 0 0 0 0 0 0 0 0 0 0 0 0 0 0 0 0 0 0 0 0 0 0 0 0 0 0 0 0 0
-0 -0 -0 -0 -0 -0 0 0 0 0 0 0 0 0 0 0 0 0 0 0 0 0 0 0 0 0 0 0 0 0 0 0 0 0 0 0 0 0 0 0 0 0 0 0 0 0 0 0 0 0 0 0 0 0
0 -0 -0 -0 -0 -0 -0 -0 0 -0 0 0 0 0 0 0 0 0 0 0 0 0 0 0 0 0 0 0 0 0 0 0 0 0 0 0 0 0 0 0 0 0 0 0 0 0 0 0 0 0 0 0 0 0
0 -0 -0 -0 -0 -0 -0 0 -0 0 0 0 0 0 0 0 0 0 0 0 0 0 0 0 0 0 0 0 0 0 0 0 0 0 0 0 0 0 0 0 0 0 0 0 0 0 0 0 0 0 0 0 0 0
-0 -0 -0 -0 -0 -0 -0 0 0 0 0 0 0 0 0 0 0 0 0 0 0 0 0 0 0 0 0 0 0 0 0 0 0 0 0 0 0 0 0 0 0 0 0 0 0 0 0 0 0 0 0 0 0 0
-0 -0 -0 -0 -0 -0 -0 0 0 0 0 0 0 0 0 0 0 0 0 0 0 0 0 0 0 0 0 0 0 0 0 0 0 0 0 0 0 0 0 0 0 0 0 0 0 0 0 0 0 0 0 0 0 0
-0 -0 -0 -0 0 0 -0 0 0 0 0 0 0 0 0 0 0 0 0 0 0 0 0 0 0 0 0 0 0 0 0 0 0 0 0 0 0 0 0 0 0 0 0 0 0 0 0 0 0 0 0 0 0 0
0 0 -0 -0 -0 0 0 0 0 0 0 0 0 0 0 0 0 0 0 0 0 0 0 0 0 0 0 0 0 0 0 0 0 0 0 0 0 0 0 0 0 0 0 0 0 0 0 0 0 0 0 0 0 0
0 0 -0 -0 0 0 0 0 0 0 0 0 0 0 0 0 0 0 0 0 0 0 0 0 0 0 0 0 0 0 0 0 0 0 0 0 0 0 0 0 0 0 0 0 0 0 0 0 0 0 0 0 0 0
0 0 0 0 0 0 0 0 0 0 0 0 0 0 0 0 0 0 0 0 0 0 0 0 0 0 0 0 0 0 0 0 0 0 0 0 0 0 0 0 0 0 0 0 0 0 0 0 0 0 0 0 0 0
0 0 0 0 0 0 0 0 0 0 0 0 0 0 0 0 0 0 0 0 0 0 0 0 0 0 0 0 0 0 0 0 0 0 0 0 0 0 0 0 0 0 0 0 0 0 0 0 0 0 0 0 0 0
0 0 0 0 0 0 0 0 0 0 0 0 0 0 0 0 0 0 0 0 0 0 0 0 0 0 0 0 0 0 0 0 0 0 0 0 0 0 0 0 0 0 0 0 0 0 0 0 0 0 0 0 0 0
0 0 0 0 0 0 0 0 0 0 0 0 0 0 0 0 0 0 0 0 0 0 0 0 0 0 0 0 0 0 0 0 0 0 0 0 0 0 0 0 0 0 0 0 0 0 0 0 0 0 0 0 0 0
0 0 0 0 0 0 0 0 0 0 0 0 0 0 0 0 0 0 0 0 0 0 0 0 0 0 0 0 0 0 0 0 0 0 0 0 0 0 0 0 0 0 0 0 0 0 0 0 0 0 0 0 0 0
0 0 0 0 0 0 0 0 0 0 0 0 0 0 0 0 0 0 0 0 0 0 0 0 0 0 0 0 0 0 0 0 0 0 0 0 0 0 0 0 0 0 0 0 0 0 0 0 0 0 0 0 0 0
-0 0 0 0 0 0 0 0 0 0 0 0 0 0 0 0 0 0 0 0 0 0 0 0 0 0 0 0 0 0 0 0 0 0 0 0 0 0 0 0 0 0 0 0 0 0 0 0 0 0 0 0 0 0
0 0 0 0 0 0 0 0 0 0 0 0 0 0 0 0 0 0 0 0 0 0 0 0 0 0 0 0 0 0 0 0 0 0 0 0 0 0 0 0 0 0 0 0 0 0 0 0 0 0 0 0 0 0
0 0 0 0 0 0 0 0 0 0 0 0 0 0 0 0 0 0 0 0 0 0 0 0 0 0 0 0 0 0 0 0 0 0 0 0 0 0 0 0 0 0 0 0 0 0 0 0 0 0 0 0 0 0
0 0 0 0 0 0 0 0 0 0 0 0 0 0 0 0 0 0 0 0 0 0 0 0 0 0 0 0 0 0 0 0 0 0 0 0 0 0 0 0 0 0 0 0 0 0 0 0 0 0 0 0 0 0
0 0 0 0 0 0 0 0 0 0 0 0 0 0 0 0 0 0 0 0 0 0 0 0 0 0 0 0 0 0 0 0 0 0 0 0 0 0 0 0 0 0 0 0 0 0 0 0 0 0 0 0 0 0
0 0 0 0 0 0 0 0 0 0 0 0 0 0 0 0 0 -0 -0 0 0 0 0 0 0 0 0 0 0 0 0 0 0 -0 -0 0 0 0 0 0 0 0 0 0 0 0 0 0 0 0 0 0 0 0
0 0 0 0 0 0 0 0 0 0 0 0 0 0 0 0 0 0 -0 0 0 0 -0 0 0 -0 0 0 0 -0 -0 -0 -0 -0 -0 0 0 0 0 0 0 0 0 0 0 0 0 0 0 0 0 0 0 0
0 0 0 0 0 0 0 0 0 0 0 0 0 0 0 0 -0 0 0 0 0 0 0 0 0 0 -0 -0 -0 -0 -0 -0 -0 -0 -0 -0 -0 0 0 0 0 0 0 0 0 0 0 0 0 0 0 0 0 0
Wind_Speed_500mb
47 53 53 49 48 46 49 46 47 49 48 49 52 58 60 62 55 53 55 59 85 36 34 52 45 32 35 38 10 15 13 5 5 7 7 8 6 10 6 8 13 14 17 9 13 9 22 30 3 12 6 8 18 26
52 49 48 54 55 54 55 55 54 54 56 54 53 55 59 64 68 50 57 51 80 57 28 66 57 59 47 61 53 46 15 17 21 6 2 5 1 3 13 7 4 5 13 10 18 13 8 7 9 14 4 20 18 12
48 47 55 59 58 58 57 58 61 61 61 63 61 58 57 62 60 69 67 54 52 58 47 44 69 73 67 47 45 25 12 20 23 19 15 6 6 6 7 10 3 8 9 7 7 13 11 33 34 21 5 4 26 42
51 54 51 53 59 59 59 60 63 66 67 67 68 63 58 60 63 64 71 67 57 18 17 24 82 77 73 72 61 59 43 40 32 26 8 5 6 11 6 6 8 15 4 6 7 10 7 20 25 31 38 52 59 67
61 58 61 61 62 65 69 67 68 69 72 69 63 62 59 62 64 64 69 75 71 55 5 11 53 80 85 77 70 65 53 51 37 11 5 7 11 6 4 4 6 15 10 6 11 28 26 38 56 53 60 71 71 60
68 71 68 64 65 67 71 75 75 79 79 72 67 60 59 60 60 55 51 83 72 60 10 7 16 63 83 81 76 64 54 52 38 20 9 11 12 19 6 8 43 61 43 49 51 68 53 64 67 52 44 48 53 57
65 64 64 66 69 68 70 79 85 81 84 75 64 55 57 61 65 63 16 23 66 65 21 5 7 39 85 81 62 50 54 43 25 16 14 17 13 21 6 15 52 26 30 35 44 54 55 62 46 43 54 59 64 67
61 64 68 70 70 62 67 68 69 78 83 73 61 55 53 56 56 55 77 56 24 62 26 9 4 13 67 26 19 38 29 28 26 23 17 14 16 10 6 30 57 34 27 36 45 50 46 48 52 54 54 55 57 59
58 56 57 58 59 54 55 46 57 74 73 67 58 55 51 57 50 67 62 65 61 42 10 10 16 9 38 27 19 14 20 5 22 6 10 19 6 11 25 35 38 34 26 32 38 43 47 44 45 51 59 62 61 64
61 49 54 51 52 50 44 35 55 62 62 61 57 43 26 56 62 33 31 23 29 33 28 5 19 10 45 18 8 13 13 7 5 8 27 6 8 48 36 38 26 25 32 35 38 45 51 58 54 53 54 53 53 57
52 47 29 56 62 59 53 47 56 64 60 65 32 31 34 30 46 27 18 23 14 11 24 21 33 20 43 17 9 12 7 7 9 8 14 6 7 25 46 40 37 41 36 36 40 41 41 48 54 55 55 52 50 52
53 66 54 36 54 64 69 66 60 64 64 62 43 33 32 24 19 15 11 16 10 12 16 23 29 35 27 22 7 10 7 6 11 19 8 7 9 21 34 38 34 29 27 28 33 37 38 42 46 51 51 50 48 47
63 62 73 33 35 59 63 73 79 83 63 45 40 25 18 15 19 17 21 8 15 10 21 48 20 16 14 13 6 7 8 8 24 6 9 10 14 30 31 27 24 23 24 25 24 28 31 33 35 40 40 39 42 40
46 54 61 66 20 53 65 68 72 74 69 18 10 13 8 13 8 9 14 10 13 40 57 57 18 10 13 5 7 11 5 8 6 8 13 6 38 35 27 24 21 18 17 17 18 20 22 25 27 30 31 31 31 29
35 40 50 58 55 19 45 91 85 65 13 12 7 9 7 4 12 8 2 18 12 70 71 23 18 16 4 8 5 9 6 8 11 12 7 29 41 33 24 18 15 13 13 15 17 18 19 20 20 21 22 20 19 15
26 28 55 59 42 47 79 82 74 39 15 12 16 5 7 10 4 11 15 13 29 58 44 18 8 8 6 9 8 10 19 14 9 6 25 42 32 23 18 15 12 11 11 12 12 13 14 14 13 12 11 10 8 5
20 34 40 37 35 27 54 54 17 18 14 11 6 13 8 7 7 7 11 12 8 15 5 7 10 7 9 7 4 7 11 6 23 42 38 30 24 20 17 13 9 10 10 8 6 7 7 6 4 5 5 1 2 3
33 39 32 27 21 17 38 19 16 18 12 12 5 12 10 18 4 13 16 23 8 8 5 6 16 7 10 12 6 7 12 33 34 33 30 26 22 18 15 12 10 9 9 6 4 4 4 3 4 4 3 5 6 9
25 31 35 25 22 8 12 15 13 10 11 6 8 10 11 11 29 26 26 24 24 20 13 4 9 5 6 2 4 16 46 30 36 32 26 21 17 16 13 11 11 11 8 7 6 6 7 8 7 7 7 8 7 10
17 20 22 28 12 11 14 16 13 17 6 9 14 14 11 11 16 24 35 30 20 12 16 10 4 3 5 11 21 42 30 33 41 40 27 21 17 14 14 13 13 11 10 10 9 9 10 11 12 12 11 10 10 10
11 15 18 17 24 31 19 13 18 13 9 13 11 12 11 15 17 27 31 36 19 13 5 10 14 21 26 29 31 30 33 30 27 15 17 25 21 19 18 17 15 13 12 12 12 13 13 12 13 13 11 9 7 6
19 14 15 23 18 15 20 23 13 9 9 9 11 13 13 5 15 20 27 30 13 10 6 11 20 22 24 24 24 25 25 25 18 17 19 20 25 24 22 19 17 15 14 14 14 14 13 13 12 10 8 7 5 3
16 16 16 20 14 17 7 10 9 11 8 5 6 8 6 8 16 17 11 9 7 9 14 17 19 21 20 20 20 21 21 19 17 16 17 20 20 19 17 17 17 16 14 16 16 15 13 12 11 9 8 7 6 5
20 16 20 17 24 4 7 14 10 9 9 7 6 5 7 8 18 10 5 6 5 7 9 13 17 18 19 20 19 20 21 21 20 21 21 18 18 19 18 18 17 17 18 17 17 15 14 12 9 9 9 9 9 12
9 26 18 15 18 12 12 10 11 9 7 6 5 5 5 9 4 5 2 5 10 12 14 16 17 15 14 16 17 19 20 20 20 19 20 20 20 21 21 20 19 18 18 17 16 14 13 12 11 10 11 15 16 18
18 21 13 6 12 9 4 7 7 2 3 5 1 8 7 5 6 2 4 10 12 15 16 16 15 14 15 17 18 19 19 19 18 19 18 19 20 19 18 18 18 17 16 15 14 14 13 12 13 16 19 21 24 26
12 9 13 18 6 4 9 9 5 7 7 4 5 7 5 5 4 5 7 11 14 16 16 15 15 16 16 16 15 16 16 16 16 14 16 17 17 16 16 16 15 15 14 15 14 15 15 17 19 22 24 25 28 33
11 15 7 18 14 16 6 5 6 4 2 4 1 3 6 8 6 2 4 9 13 14 14 15 14 13 13 14 15 15 17 18 18 16 17 17 17 16 15 15 15 14 16 16 16 20 22 22 24 27 29 29 26 30
12 11 7 10 9 12 9 3 3 3 4 3 4 4 6 6 7 10 7 11 14 15 15 15 14 14 15 16 16 18 17 18 18 18 16 14 15 15 15 15 17 17 18 17 19 23 26 28 30 32 31 32 29 26
11 14 6 5 7 4 3 5 5 5 5 6 8 9 10 10 10 10 9 14 16 15 17 17 18 18 17 16 16 16 15 16 16 16 14 14 14 13 14 15 16 19 21 22 24 26 30 32 33 36 39 38 36 37
5 6 5 5 3 2 4 9 9 10 8 6 10 10 12 12 10 7 11 16 20 20 20 20 20 19 18 17 15 14 13 14 15 17 19 19 20 21 22 22 23 24 26 28 29 31 32 33 35 36 37 37 37 41
7 7 4 3 2 1 6 9 6 5 4 5 5 7 8 8 8 4 7 19 20 21 19 21 20 16 14 16 16 14 14 16 16 17 18 18 18 21 22 24 26 28 29 30 32 33 35 37 37 38 41 42 44 46
3 5 5 3 3 2 7 12 4 7 5 5 4 5 5 6 9 4 4 10 14 14 14 14 16 21 19 17 16 17 18 18 19 19 20 22 24 26 27 27 29 30 32 33 34 36 38 41 44 46 49 53 56 58
Wind_Direction_500mb
270 266 262 261 260 255 255 252 248 243 243 239 235 232 234 235 235 233 234 220 205 214 222 214 211 188 199 208 149 148 106 169 105 151 154 193 158 218 113 197 178 158 173 198 221 235 248 242 356 176 171 281 291 286
272 267 261 259 259 256 254 250 249 248 246 243 239 235 230 231 233 237 248 238 215 213 227 218 220 215 210 219 200 172 189 157 165 123 197 104 122 85 166 222 228 265 189 184 183 205 208 116 289 290 254 283 282 260
281 273 266 263 259 259 254 252 250 248 245 243 240 239 234 232 230 232 240 253 228 214 216 203 209 215 214 207 200 167 198 169 177 165 157 186 194 120 169 238 170 264 197 194 74 273 277 300 298 293 271 184 318 314
289 276 270 262 255 255 253 256 253 248 246 241 239 234 235 236 231 230 235 243 241 240 224 215 216 212 214 212 214 217 217 196 193 177 135 141 160 183 208 195 170 211 126 174 260 285 267 273 278 298 303 307 305 308
285 282 269 266 261 257 253 253 255 252 243 236 231 232 234 233 232 230 235 236 238 228 261 192 205 210 205 203 204 210 208 198 173 143 149 199 177 106 349 58 251 197 210 192 255 266 273 275 282 286 294 296 299 299
278 276 266 260 263 260 254 251 256 248 236 229 226 230 231 229 227 224 237 237 237 226 221 196 184 189 197 198 198 195 190 183 177 174 170 176 168 180 144 217 251 257 251 251 255 269 272 278 285 289 283 288 289 289
278 272 262 258 262 260 256 258 254 238 224 220 221 223 224 226 215 209 218 216 219 219 204 203 156 183 193 190 188 184 186 185 186 169 182 162 172 186 128 236 251 240 256 264 266 273 279 281 278 278 282 284 287 288
277 269 262 259 257 259 260 264 240 222 208 209 213 213 216 218 217 225 226 240 175 188 202 177 119 143 170 156 148 179 167 176 183 176 165 147 158 171 242 239 250 254 254 256 256 264 268 277 282 284 286 289 288 290
296 272 262 256 248 251 264 253 210 195 199 202 205 210 216 217 219 226 227 237 244 217 186 158 151 165 161 141 124 127 149 143 165 163 178 150 200 210 226 235 245 242 241 250 253 266 279 285 287 291 292 293 294 293
315 263 243 242 239 239 241 225 195 196 198 202 201 199 203 210 219 213 214 220 216 224 207 188 156 157 161 142 126 113 143 146 155 211 145 160 237 236 240 235 233 245 251 261 276 279 281 287 294 295 295 298 299 298
341 357 274 237 229 228 222 211 202 199 199 199 190 199 208 193 184 196 210 196 186 175 161 156 183 139 168 156 128 147 148 155 160 212 149 194 253 225 220 222 238 251 260 268 272 276 280 285 293 296 297 299 298 297
3 357 12 243 230 221 214 207 199 197 200 197 188 181 182 186 192 193 206 176 201 174 157 153 164 129 131 127 116 142 141 117 190 147 127 216 230 169 188 207 225 240 252 259 267 272 276 279 284 287 293 297 297 297
9 1 5 2 221 206 203 201 200 201 191 180 185 174 167 191 233 168 176 249 142 160 151 144 138 124 118 110 115 127 134 180 127 136 201 225 146 174 186 199 218 238 254 262 266 274 281 285 286 287 292 294 298 301
8 16 8 26 42 199 191 184 182 190 173 172 136 139 207 174 231 223 150 181 160 142 156 150 121 126 126 111 129 113 163 113 83 138 224 217 182 175 180 188 206 226 246 264 277 280 283 287 285 287 293 298 300 306
5 22 22 26 38 158 190 173 160 164 86 78 81 167 208 314 269 245 114 129 157 150 150 131 79 92 98 117 124 110 97 164 189 212 210 167 162 169 175 190 209 228 249 265 280 290 291 291 292 294 298 299 298 305
8 31 36 18 40 100 130 129 138 137 67 62 40 82 17 248 335 349 26 95 137 149 146 100 106 97 111 124 129 182 140 197 216 186 150 154 154 160 177 195 215 236 255 267 279 288 288 292 298 309 316 313 301 292
11 27 16 19 26 82 129 135 109 64 67 42 41 42 251 33 66 325 48 15 134 177 122 111 99 145 104 117 167 197 193 200 143 135 144 144 154 168 179 189 210 234 244 251 275 288 283 271 286 322 303 55 98 131
29 18 14 10 26 89 88 64 71 63 69 39 72 349 30 45 17 36 25 36 95 62 52 133 124 107 149 153 236 163 132 122 131 136 140 143 154 164 177 186 194 204 209 200 200 211 223 242 238 226 152 114 120 120
14 11 13 5 21 79 71 53 53 98 75 96 76 47 53 60 47 38 33 54 74 81 105 59 83 117 144 89 122 138 148 149 154 145 139 143 157 168 164 172 180 184 175 164 172 193 211 217 216 196 179 161 165 140
11 1 2 15 15 79 76 40 50 80 75 66 35 24 46 42 23 28 36 40 41 41 40 37 62 88 95 104 134 141 144 142 145 137 142 154 163 171 173 174 177 168 154 151 158 169 167 168 168 167 163 161 151 149
19 32 31 38 49 58 77 44 57 55 70 68 22 39 51 28 25 22 10 8 54 34 62 45 98 107 123 123 138 144 143 149 150 155 174 167 174 182 182 178 176 171 164 168 172 177 170 173 164 158 157 158 159 152
35 42 41 43 64 66 67 44 69 74 59 57 30 30 35 22 7 11 354 39 53 31 65 137 133 135 136 138 141 144 153 161 168 163 166 176 181 180 182 180 180 176 175 182 181 185 182 179 175 172 175 183 196 209
32 38 50 37 77 54 46 46 73 33 71 21 37 37 20 14 3 0 70 52 63 75 119 135 137 135 141 147 153 157 164 162 183 184 181 183 172 173 175 177 180 177 182 183 186 187 189 191 197 209 224 236 253 285
35 48 32 39 33 54 41 34 50 57 62 40 49 39 355 326 349 43 52 356 71 121 139 150 149 151 159 166 169 177 175 177 194 191 184 181 175 173 173 174 177 179 180 186 190 192 199 210 225 240 257 277 298 297
61 11 19 8 21 37 39 21 4 40 51 354 68 27 343 343 68 60 160 216 179 183 176 180 166 168 178 184 187 187 184 188 192 190 181 178 172 172 176 178 181 187 191 195 200 209 221 232 243 256 272 278 286 295
64 10 36 346 3 56 348 65 38 92 81 58 348 304 345 66 61 264 242 182 189 186 188 187 170 177 191 198 199 191 184 179 182 181 177 175 177 176 181 184 189 194 201 209 221 231 241 254 268 275 283 292 298 301
63 349 21 26 18 50 64 55 92 81 69 63 314 6 43 83 248 244 179 192 188 187 183 181 184 192 196 190 185 181 175 172 168 176 179 178 177 183 193 199 205 212 221 226 234 247 257 266 277 283 288 295 301 302
71 32 61 359 39 33 101 47 42 55 296 8 4 33 149 184 229 299 205 185 184 182 182 183 183 182 184 177 171 172 172 170 172 174 178 186 193 201 208 218 227 234 242 243 252 263 271 280 287 291 295 297 296 296
46 13 8 25 37 44 46 107 224 4 338 323 131 272 267 266 288 303 281 216 199 193 190 189 190 185 180 178 177 177 179 184 187 190 192 197 207 215 225 233 242 246 252 259 270 279 285 289 290 291 295 298 301 298
23 12 66 48 71 12 348 7 360 336 311 294 295 292 283 291 307 298 242 212 203 198 197 197 195 193 190 191 190 192 196 201 205 208 213 225 240 243 243 254 261 259 264 275 280 283 287 291 294 296 300 304 306 303
13 8 66 62 143 123 333 334 313 306 292 280 275 266 287 302 303 263 217 202 205 208 207 205 203 203 202 203 205 208 211 218 224 230 235 241 249 256 263 268 270 274 277 279 283 286 289 291 292 293 294 295 296 297
18 39 97 58 295 271 327 339 306 301 288 285 273 283 299 294 282 267 237 217 216 214 205 209 210 206 207 211 219 225 234 242 246 248 252 254 254 258 265 272 276 278 280 283 287 290 291 293 295 297 299 299 300 302
46 41 48 53 24 22 346 340 338 326 259 275 273 284 278 276 261 276 264 216 203 199 203 206 203 214 220 224 234 243 250 253 255 261 265 268 269 269 272 276 278 280 284 287 288 290 293 296 298 301 302 304 304 304
Wind_Speed_850mb
47 53 53 49 48 46 49 46 47 49 48 49 52 58 60 62 55 53 55 59 85 36 34 52 45 32 35 38 10 15 13 5 5 7 7 8 6 10 6 8 13 14 17 9 13 9 22 30 3 12 6 8 18 26
52 49 48 54 55 54 55 55 54 54 56 54 53 55 59 64 68 50 57 51 80 57 28 66 57 59 47 61 53 46 15 17 21 6 2 5 1 3 13 7 4 5 13 10 18 13 8 7 9 14 4 20 18 12
48 47 55 59 58 58 57 58 61 61 61 63 61 58 57 62 60 69 67 54 52 58 47 44 69 73 67 47 45 25 12 20 23 19 15 6 6 6 7 10 3 8 9 7 7 13 11 33 34 21 5 4 26 42
51 54 51 53 59 59 59 60 63 66 67 67 68 63 58 60 63 64 71 67 57 18 17 24 82 77 73 72 61 59 43 40 32 26 8 5 6 11 6 6 8 15 4 6 7 10 7 20 25 31 38 52 59 67
61 58 61 61 62 65 69 67 68 69 72 69 63 62 59 62 64 64 69 75 71 55 5 11 53 80 85 77 70 65 53 51 37 11 5 7 11 6 4 4 6 15 10 6 11 28 26 38 56 53 60 71 71 60
68 71 68 64 65 67 71 75 75 79 79 72 67 60 59 60 60 55 51 83 72 60 10 7 16 63 83 81 76 64 54 52 38 20 9 11 12 19 6 8 43 61 43 49 51 68 53 64 67 52 44 48 53 57
65 64 64 66 69 68 70 79 85 81 84 75 64 55 57 61 65 63 16 23 66 65 21 5 7 39 85 81 62 50 54 43 25 16 14 17 13 21 6 15 52 26 30 35 44 54 55 62 46 43 54 59 64 67
61 64 68 70 70 62 67 68 69 78 83 73 61 55 53 56 56 55 77 56 24 62 26 9 4 13 67 26 19 38 29 28 26 23 17 14 16 10 6 30 57 34 27 36 45 50 46 48 52 54 54 55 57 59
58 56 57 58 59 54 55 46 57 74 73 67 58 55 51 57 50 67 62 65 61 42 10 10 16 9 38 27 19 14 20 5 22 6 10 19 6 11 25 35 38 34 26 32 38 43 47 44 45 51 59 62 61 64
61 49 54 51 52 50 44 35 55 62 62 61 57 43 26 56 62 33 31 23 29 33 28 5 19 10 45 18 8 13 13 7 5 8 27 6 8 48 36 38 26 25 32 35 38 45 51 58 54 53 54 53 53 57
52 47 29 56 62 59 53 47 56 64 60 65 32 31 34 30 46 27 18 23 14 11 24 21 33 20 43 17 9 12 7 7 9 8 14 6 7 25 46 40 37 41 36 36 40 41 41 48 54 55 55 52 50 52
53 66 54 36 54 64 69 66 60 64 64 62 43 33 32 24 19 15 11 16 10 12 16 23 29 35 27 22 7 10 7 6 11 19 8 7 9 21 34 38 34 29 27 28 33 37 38 42 46 51 51 50 48 47
63 62 73 33 35 59 63 73 79 83 63 45 40 25 18 15 19 17 21 8 15 10 21 48 20 16 14 13 6 7 8 8 24 6 9 10 14 30 31 27 24 23 24 25 24 28 31 33 35 40 40 39 42 40
46 54 61 66 20 53 65 68 72 74 69 18 10 13 8 13 8 9 14 10 13 40 57 57 18 10 13 5 7 11 5 8 6 8 13 6 38 35 27 24 21 18 17 17 18 20 22 25 27 30 31 31 31 29
35 40 50 58 55 19 45 91 85 65 13 12 7 9 7 4 12 8 2 18 12 70 71 23 18 16 4 8 5 9 6 8 11 12 7 29 41 33 24 18 15 13 13 15 17 18 19 20 20 21 22 20 19 15
26 28 55 59 42 47 79 82 74 39 15 12 16 5 7 10 4 11 15 13 29 58 44 18 8 8 6 9 8 10 19 14 9 6 25 42 32 23 18 15 12 11 11 12 12 13 14 14 13 12 11 10 8 5
20 34 40 37 35 27 54 54 17 18 14 11 6 13 8 7 7 7 11 12 8 15 5 7 10 7 9 7 4 7 11 6 23 42 38 30 24 20 17 13 9 10 10 8 6 7 7 6 4 5 5 1 2 3
33 39 32 27 21 17 38 19 16 18 12 12 5 12 10 18 4 13 16 23 8 8 5 6 16 7 10 12 6 7 12 33 34 33 30 26 22 18 15 12 10 9 9 6 4 4 4 3 4 4 3 5 6 9
25 31 35 25 22 8 12 15 13 10 11 6 8 10 11 11 29 26 26 24 24 20 13 4 9 5 6 2 4 16 46 30 36 32 26 21 17 16 13 11 11 11 8 7 6 6 7 8 7 7 7 8 7 10
17 20 22 28 12 11 14 16 13 17 6 9 14 14 11 11 16 24 35 30 20 12 16 10 4 3 5 11 21 42 30 33 41 40 27 21 17 14 14 13 13 11 10 10 9 9 10 11 12 12 11 10 10 10
11 15 18 17 24 31 19 13 18 13 9 13 11 12 11 15 17 27 31 36 19 13 5 10 14 21 26 29 31 30 33 30 27 15 17 25 21 19 18 17 15 13 12 12 12 13 13 12 13 13 11 9 7 6
19 14 15 23 18 15 20 23 13 9 9 9 11 13 13 5 15 20 27 30 13 10 6 11 20 22 24 24 24 25 25 25 18 17 19 20 25 24 22 19 17 15 14 14 14 14 13 13 12 10 8 7 5 3
16 16 16 20 14 17 7 10 9 11 8 5 6 8 6 8 16 17 11 9 7 9 14 17 19 21 20 20 20 21 21 19 17 16 17 20 20 19 17 17 17 16 14 16 16 15 13 12 11 9 8 7 6 5
20 16 20 17 24 4 7 14 10 9 9 7 6 5 7 8 18 10 5 6 5 7 9 13 17 18 19 20 19 20 21 21 20 21 21 18 18 19 18 18 17 17 18 17 17 15 14 12 9 9 9 9 9 12
9 26 18 15 18 12 12 10 11 9 7 6 5 5 5 9 4 5 2 5 10 12 14 16 17 15 14 16 17 19 20 20 20 19 20 20 20 21 21 20 19 18 18 17 16 14 13 12 11 10 11 15 16 18
18 21 13 6 12 9 4 7 7 2 3 5 1 8 7 5 6 2 4 10 12 15 16 16 15 14 15 17 18 19 19 19 18 19 18 19 20 19 18 18 18 17 16 15 14 14 13 12 13 16 19 21 24 26
12 9 13 18 6 4 9 9 5 7 7 4 5 7 5 5 4 5 7 11 14 16 16 15 15 16 16 16 15 16 16 16 16 14 16 17 17 16 16 16 15 15 14 15 14 15 15 17 19 22 24 25 28 33
11 15 7 18 14 16 6 5 6 4 2 4 1 3 6 8 6 2 4 9 13 14 14 15 14 13 13 14 15 15 17 18 18 16 17 17 17 16 15 15 15 14 16 16 16 20 22 22 24 27 29 29 26 30
12 11 7 10 9 12 9 3 3 3 4 3 4 4 6 6 7 10 7 11 14 15 15 15 14 14 15 16 16 18 17 18 18 18 16 14 15 15 15 15 17 17 18 17 19 23 26 28 30 32 31 32 29 26
11 14 6 5 7 4 3 5 5 5 5 6 8 9 10 10 10 10 9 14 16 15 17 17 18 18 17 16 16 16 15 16 16 16 14 14 14 13 14 15 16 19 21 22 24 26 30 32 33 36 39 38 36 37
5 6 5 5 3 2 4 9 9 10 8 6 10 10 12 12 10 7 11 16 20 20 20 20 20 19 18 17 15 14 13 14 15 17 19 19 20 21 22 22 23 24 26 28 29 31 32 33 35 36 37 37 37 41
7 7 4 3 2 1 6 9 6 5 4 5 5 7 8 8 8 4 7 19 20 21 19 21 20 16 14 16 16 14 14 16 16 17 18 18 18 21 22 24 26 28 29 30 32 33 35 37 37 38 41 42 44 46
3 5 5 3 3 2 7 12 4 7 5 5 4 5 5 6 9 4 4 10 14 14 14 14 16 21 19 17 16 17 18 18 19 19 20 22 24 26 27 27 29 30 32 33 34 36 38 41 44 46 49 53 56 58
Wind_Direction_850mb
270 266 262 261 260 255 255 252 248 243 243 239 235 232 234 235 235 233 234 220 205 214 222 214 211 188 199 208 149 148 106 169 105 151 154 193 158 218 113 197 178 158 173 198 221 235 248 242 356 176 171 281 291 286
272 267 261 259 259 256 254 250 249 248 246 243 239 235 230 231 233 237 248 238 215 213 227 218 220 215 210 219 200 172 189 157 165 123 197 104 122 85 166 222 228 265 189 184 183 205 208 116 289 290 254 283 282 260
281 273 266 263 259 259 254 252 250 248 245 243 240 239 234 232 230 232 240 253 228 214 216 203 209 215 214 207 200 167 198 169 177 165 157 186 194 120 169 238 170 264 197 194 74 273 277 300 298 293 271 184 318 314
289 276 270 262 255 255 253 256 253 248 246 241 239 234 235 236 231 230 235 243 241 240 224 215 216 212 214 212 214 217 217 196 193 177 135 141 160 183 208 195 170 211 126 174 260 285 267 273 278 298 303 307 305 308
285 282 269 266 261 257 253 253 255 252 243 236 231 232 234 233 232 230 235 236 238 228 261 192 205 210 205 203 204 210 208 198 173 143 149 199 177 106 349 58 251 197 210 192 255 266 273 275 282 286 294 296 299 299
278 276 266 260 263 260 254 251 256 248 236 229 226 230 231 229 227 224 237 237 237 226 221 196 184 189 197 198 198 195 190 183 177 174 170 176 168 180 144 217 251 257 251 251 255 269 272 278 285 289 283 288 289 289
278 272 262 258 262 260 256 258 254 238 224 220 221 223 224 226 215 209 218 216 219 219 204 203 156 183 193 190 188 184 186 185 186 169 182 162 172 186 128 236 251 240 256 264 266 273 279 281 278 278 282 284 287 288
277 269 262 259 257 259 260 264 240 222 208 209 213 213 216 218 217 225 226 240 175 188 202 177 119 143 170 156 148 179 167 176 183 176 165 147 158 171 242 239 250 254 254 256 256 264 268 277 282 284 286 289 288 290
296 272 262 256 248 251 264 253 210 195 199 202 205 210 216 217 219 226 227 237 244 217 186 158 151 165 161 141 124 127 149 143 165 163 178 150 200 210 226 235 245 242 241 250 253 266 279 285 287 291 292 293 294 293
315 263 243 242 239 239 241 225 195 196 198 202 201 199 203 210 219 213 214 220 216 224 207 188 156 157 161 142 126 113 143 146 155 211 145 160 237 236 240 235 233 245 251 261 276 279 281 287 294 295 295 298 299 298
341 357 274 237 229 228 222 211 202 199 199 199 190 199 208 193 184 196 210 196 186 175 161 156 183 139 168 156 128 147 148 155 160 212 149 194 253 225 220 222 238 251 260 268 272 276 280 285 293 296 297 299 298 297
3 357 12 243 230 221 214 207 199 197 200 197 188 181 182 186 192 193 206 176 201 174 157 153 164 129 131 127 116 142 141 117 190 147 127 216 230 169 188 207 225 240 252 259 267 272 276 279 284 287 293 297 297 297
9 1 5 2 221 206 203 201 200 201 191 180 185 174 167 191 233 168 176 249 142 160 151 144 138 124 118 110 115 127 134 180 127 136 201 225 146 174 186 199 218 238 254 262 266 274 281 285 286 287 292 294 298 301
8 16 8 26 42 199 191 184 182 190 173 172 136 139 207 174 231 223 150 181 160 142 156 150 121 126 126 111 129 113 163 113 83 138 224 217 182 175 180 188 206 226 246 264 277 280 283 287 285 287 293 298 300 306
5 22 22 26 38 158 190 173 160 164 86 78 81 167 208 314 269 245 114 129 157 150 150 131 79 92 98 117 124 110 97 164 189 212 210 167 162 169 175 190 209 228 249 265 280 290 291 291 292 294 298 299 298 305
8 31 36 18 40 100 130 129 138 137 67 62 40 82 17 248 335 349 26 95 137 149 146 100 106 97 111 124 129 182 140 197 216 186 150 154 154 160 177 195 215 236 255 267 279 288 288 292 298 309 316 313 301 292
11 27 16 19 26 82 129 135 109 64 67 42 41 42 251 33 66 325 48 15 134 177 122 111 99 145 104 117 167 197 193 200 143 135 144 144 154 168 179 189 210 234 244 251 275 288 283 271 286 322 303 55 98 131
29 18 14 10 26 89 88 64 71 63 69 39 72 349 30 45 17 36 25 36 95 62 52 133 124 107 149 153 236 163 132 122 131 136 140 143 154 164 177 186 194 204 209 200 200 211 223 242 238 226 152 114 120 120
14 11 13 5 21 79 71 53 53 98 75 96 76 47 53 60 47 38 33 54 74 81 105 59 83 117 144 89 122 138 148 149 154 145 139 143 157 168 164 172 180 184 175 164 172 193 211 217 216 196 179 161 165 140
11 1 2 15 15 79 76 40 50 80 75 66 35 24 46 42 23 28 36 40 41 41 40 37 62 88 95 104 134 141 144 142 145 137 142 154 163 171 173 174 177 168 154 151 158 169 167 168 168 167 163 161 151 149
19 32 31 38 49 58 77 44 57 55 70 68 22 39 51 28 25 22 10 8 54 34 62 45 98 107 123 123 138 144 143 149 150 155 174 167 174 182 182 178 176 171 164 168 172 177 170 173 164 158 157 158 159 152
35 42 41 43 64 66 67 44 69 74 59 57 30 30 35 22 7 11 354 39 53 31 65 137 133 135 136 138 141 144 153 161 168 163 166 176 181 180 182 180 180 176 175 182 181 185 182 179 175 172 175 183 196 209
32 38 50 37 77 54 46 46 73 33 71 21 37 37 20 14 3 0 70 52 63 75 119 135 137 135 141 147 153 157 164 162 183 184 181 183 172 173 175 177 180 177 182 183 186 187 189 191 197 209 224 236 253 285
35 48 32 39 33 54 41 34 50 57 62 40 49 39 355 326 349 43 52 356 71 121 139 150 149 151 159 166 169 177 175 177 194 191 184 181 175 173 173 174 177 179 180 186 190 192 199 210 225 240 257 277 298 297
61 11 19 8 21 37 39 21 4 40 51 354 68 27 343 343 68 60 160 216 179 183 176 180 166 168 178 184 187 187 184 188 192 190 181 178 172 172 176 178 181 187 191 195 200 209 221 232 243 256 272 278 286 295
64 10 36 346 3 56 348 65 38 92 81 58 348 304 345 66 61 264 242 182 189 186 188 187 170 177 191 198 199 191 184 179 182 181 177 175 177 176 181 184 189 194 201 209 221 231 241 254 268 275 283 292 298 301
63 349 21 26 18 50 64 55 92 81 69 63 314 6 43 83 248 244 179 192 188 187 183 181 184 192 196 190 185 181 175 172 168 176 179 178 177 183 193 199 205 212 221 226 234 247 257 266 277 283 288 295 301 302
71 32 61 359 39 33 101 47 42 55 296 8 4 33 149 184 229 299 205 185 184 182 182 183 183 182 184 177 171 172 172 170 172 174 178 186 193 201 208 218 227 234 242 243 252 263 271 280 287 291 295 297 296 296
46 13 8 25 37 44 46 107 224 4 338 323 131 272 267 266 288 303 281 216 199 193 190 189 190 185 180 178 177 177 179 184 187 190 192 197 207 215 225 233 242 246 252 259 270 279 285 289 290 291 295 298 301 298
23 12 66 48 71 12 348 7 360 336 311 294 295 292 283 291 307 298 242 212 203 198 197 197 195 193 190 191 190 192 196 201 205 208 213 225 240 243 243 254 261 259 264 275 280 283 287 291 294 296 300 304 306 303
13 8 66 62 143 123 333 334 313 306 292 280 275 266 287 302 303 263 217 202 205 208 207 205 203 203 202 203 205 208 211 218 224 230 235 241 249 256 263 268 270 274 277 279 283 286 289 291 292 293 294 295 296 297
18 39 97 58 295 271 327 339 306 301 288 285 273 283 299 294 282 267 237 217 216 214 205 209 210 206 207 211 219 225 234 242 246 248 252 254 254 258 265 272 276 278 280 283 287 290 291 293 295 297 299 299 300 302
46 41 48 53 24 22 346 340 338 326 259 275 273 284 278 276 261 276 264 216 203 199 203 206 203 214 220 224 234 243 250 253 255 261 265 268 269 269 272 276 278 280 284 287 288 290 293 296 298 301 302 304 304 304